Saginaw, Michigan, United States (48601)
Lat: 43.42N, Lon: 83.95W
Wx Zone: MIZ053
Local Info
Past Weather Observations for Today

NOTE: This archive is for the closest National Weather Service station to Saginaw. Information may differ from the station used for current weather conditions.

Click here for Long-term Archive

Time Weather Temperature Dewpoint Humidity Pressure Winds Precip Visibility
15:14
Overcast
Light Snow
30°F / -1°C 27°F / -3°C 86% 29.59 in
(1002 mb)
W 17.3 mph
(W 28 kph)
- 1 1/2SM
14:55
Overcast
Light Snow
30°F / -1°C 28°F / -2°C 93% 29.59 in
(1002 mb)
W 16.1 mph
(W 26 kph)
- 1/2SM
14:35
Overcast
Light Snow
30°F / -1°C 28°F / -2°C 93% 29.56 in
(1001 mb)
W 17.3 mph
(W 28 kph)
- 1/2SM
14:14
Overcast
Light Snow
30°F / -1°C 28°F / -2°C 93% 29.56 in
(1001 mb)
W 11.5 mph
(W 19 kph)
- 3/4SM
13:55
Overcast
Light Snow
30°F / -1°C 28°F / -2°C 93% 29.56 in
(1001 mb)
W 12.7 mph
(W 20 kph)
- 1SM
13:35
Overcast
Light Snow
30°F / -1°C 28°F / -2°C 93% 29.56 in
(1001 mb)
W 17.3 mph
(W 28 kph)
- 1SM
13:15
Overcast
Light Snow
30°F / -1°C 28°F / -2°C 93% 29.56 in
(1001 mb)
W 12.7 mph
(W 20 kph)
- 1SM
12:55
Overcast
Light Snow
30°F / -1°C 28°F / -2°C 93% 29.56 in
(1001 mb)
W 11.5 mph
(W 19 kph)
- 3/4SM
12:35
Overcast
Light Snow
30°F / -1°C 28°F / -2°C 93% 29.59 in
(1002 mb)
W 13.8 mph
(W 22 kph)
- 3/4SM
12:15
Overcast
Light Snow
30°F / -1°C 27°F / -3°C 86% 29.59 in
(1002 mb)
W 15 mph
(W 24 kph)
- 3/4SM
11:55
Overcast
Light Snow
28°F / -2°C 27°F / -3°C 93% 29.59 in
(1002 mb)
W 13.8 mph
(W 22 kph)
- 3/4SM
11:35
Overcast
Light Snow
28°F / -2°C 27°F / -3°C 93% 29.59 in
(1002 mb)
W 12.7 mph
(W 20 kph)
- 1SM
11:15
Overcast
Light Snow
28°F / -2°C 27°F / -3°C 93% 29.59 in
(1002 mb)
W 12.7 mph
(W 20 kph)
- 3/4SM
10:55
Overcast
Light Snow
28°F / -2°C 27°F / -3°C 93% 29.59 in
(1002 mb)
W 15 mph
(W 24 kph)
- 1SM
10:35
Overcast
Light Snow
28°F / -2°C 27°F / -3°C 93% 29.59 in
(1002 mb)
W 13.8 mph
(W 22 kph)
- 3/4SM
10:15
Overcast
Snow
28°F / -2°C 27°F / -3°C 93% 29.59 in
(1002 mb)
W 12.7 mph
(W 20 kph)
- 1/2SM
09:55
Overcast
Light Snow
28°F / -2°C 27°F / -3°C 93% 29.56 in
(1001 mb)
W 13.8 mph
(W 22 kph)
- 3/4SM
09:35
Overcast
Light Snow
28°F / -2°C 27°F / -3°C 93% 29.56 in
(1001 mb)
W 13.8 mph
(W 22 kph)
- 1/2SM
09:15
Overcast
Light Snow
28°F / -2°C 27°F / -3°C 93% 29.59 in
(1002 mb)
W 13.8 mph
(W 22 kph)
- 1SM
08:55
Overcast
Light Snow
28°F / -2°C 27°F / -3°C 93% 29.59 in
(1002 mb)
W 11.5 mph
(W 19 kph)
- 1SM
08:35
Overcast
Light Snow
28°F / -2°C 27°F / -3°C 93% 29.56 in
(1001 mb)
WNW 10.4 mph
(WNW 17 kph)
- 3/4SM
08:15
Overcast
Snow
28°F / -2°C 27°F / -3°C 93% 29.56 in
(1001 mb)
WNW 16.1 mph
(WNW 26 kph)
- 1/4SM
07:55
Overcast
Light Snow
28°F / -2°C 28°F / -2°C 100% 29.56 in
(1001 mb)
WNW 16.1 mph
(WNW 26 kph)
- 3/4SM
07:34
Overcast
Snow
28°F / -2°C 28°F / -2°C 100% 29.56 in
(1001 mb)
NW 13.8 mph
(NW 22 kph)
- 1 1/4SM
07:15
Overcast
Light Snow
30°F / -1°C 28°F / -2°C 93% 29.56 in
(1001 mb)
NW 13.8 mph
(NW 22 kph)
- 2SM
06:55
Overcast
Light Snow
30°F / -1°C 28°F / -2°C 93% 29.56 in
(1001 mb)
NW 11.5 mph
(NW 19 kph)
- 1 3/4SM
06:35
Overcast
Light Snow
30°F / -1°C 28°F / -2°C 93% 29.53 in
(1000 mb)
NW 11.5 mph
(NW 19 kph)
- 1 3/4SM
06:15
Overcast
Light Snow
30°F / -1°C 30°F / -1°C 100% 29.53 in
(1000 mb)
NW 10.4 mph
(NW 17 kph)
- 1 1/2SM
05:55
Overcast
Light Snow
30°F / -1°C 30°F / -1°C 100% 29.53 in
(1000 mb)
NW 9.2 mph
(NW 15 kph)
- 1 3/4SM
05:35
Overcast
Light Snow
32°F / 0°C 30°F / -1°C 93% 29.53 in
(1000 mb)
NW 12.7 mph
(NW 20 kph)
- 1 3/4SM
05:15
Overcast
Light Snow
32°F / 0°C 30°F / -1°C 93% 29.53 in
(1000 mb)
NW 15 mph
(NW 24 kph)
- 3SM
04:55
Overcast
Light Snow
32°F / 0°C 30°F / -1°C 93% 29.53 in
(1000 mb)
NW 16.1 mph
(NW 26 kph)
- 2 1/2SM
04:34
Overcast
Light Snow
32°F / 0°C 30°F / -1°C 93% 29.5 in
(999 mb)
NW 15 mph
(NW 24 kph)
- 4SM
04:15
Overcast
Light Snow
32°F / 0°C 32°F / 0°C 100% 29.53 in
(1000 mb)
NW 11.5 mph
(NW 19 kph)
- 5SM
03:55
Overcast
Light Snow
32°F / 0°C 32°F / 0°C 100% 29.53 in
(1000 mb)
NW 12.7 mph
(NW 20 kph)
- 4SM
03:35
Overcast
Light Snow
32°F / 0°C 32°F / 0°C 100% 29.53 in
(1000 mb)
NW 15 mph
(NW 24 kph)
- 5SM
03:15
Overcast
Light Snow
32°F / 0°C 32°F / 0°C 100% 29.53 in
(1000 mb)
NW 11.5 mph
(NW 19 kph)
- 4SM
02:55
Overcast
Light Snow
32°F / 0°C 32°F / 0°C 100% 29.53 in
(1000 mb)
NW 11.5 mph
(NW 19 kph)
- 4SM
02:35
Overcast
Light Snow
34°F / 1°C 32°F / 0°C 93% 29.53 in
(1000 mb)
NW 10.4 mph
(NW 17 kph)
- 2 1/2SM
02:15
Overcast
Light Snow
34°F / 1°C 32°F / 0°C 93% 29.53 in
(1000 mb)
NW 11.5 mph
(NW 19 kph)
- 3SM
01:55
Overcast
Light Snow
34°F / 1°C 32°F / 0°C 93% 29.53 in
(1000 mb)
NW 9.2 mph
(NW 15 kph)
- 1 3/4SM
01:35
Overcast
Light Snow
34°F / 1°C 32°F / 0°C 93% 29.53 in
(1000 mb)
WNW 8.1 mph
(WNW 13 kph)
- 1 3/4SM
01:15
Overcast
Light Snow
34°F / 1°C 32°F / 0°C 93% 29.53 in
(1000 mb)
WNW 6.9 mph
(WNW 11 kph)
- 1 1/2SM
00:55
Overcast
Snow
34°F / 1°C 32°F / 0°C 93% 29.53 in
(1000 mb)
W 5.8 mph
(W 9 kph)
- 1 1/4SM
00:35
Overcast
Light Snow
34°F / 1°C 32°F / 0°C 93% 29.53 in
(1000 mb)
W 4.6 mph
(W 7 kph)
- 3/4SM
00:15
Overcast
Light Snow
34°F / 1°C 32°F / 0°C 93% 29.53 in
(1000 mb)
W 5.8 mph
(W 9 kph)
- 2SM
Time Weather Temperature Dewpoint Humidity Pressure Winds Precip Visibility


Weather for websites

WeatherForYou.com, LLC is not responsible for any damages or problems caused by this service. Current weather conditions are obtained from the closest station including government and personal stations which may have varying degrees of accuracy. Weather forecasts are derived from the NOAA NDFD. Like all things, this site belongs to Jesus Christ... He just trusts us to maintain it. If you have any questions or comments email webmaster@weatherforyou.com

Copyright © 2016, WeatherForYou.com LLC. All rights reserved.